SHT8K EGKK-EGPH

Flight info

Callsign SHT8K
Flight time 1h 4m
Altitude 38000
Route LAM L10 BPK UN601 RIBEL DCT INPIP
Aircraft A321/M-SDE3FGHIRWY/LB1

Departure

Time 2026-04-17 09:43
Airport London Gatwick Airport (EGKK)

Arrival

Time 2026-04-17 10:47
Airport Edinburgh Airport (EGPH)
Time Latitude Longitude Altitude Speed Heading
2026-04-17 09:16 51.15477 -0.17030 205 ft 0 kts 348°
2026-04-17 09:35 51.15465 -0.17026 213 ft 3 kts 348°
2026-04-17 09:35 51.15446 -0.17014 215 ft 3 kts 316°
2026-04-17 09:35 51.15435 -0.16989 213 ft 3 kts 291°
2026-04-17 09:35 51.15430 -0.16960 214 ft 3 kts 263°
2026-04-17 09:36 51.15431 -0.16947 214 ft 0 kts 263°
2026-04-17 09:38 51.15431 -0.16953 205 ft 1 kts 263°
2026-04-17 09:38 51.15428 -0.16979 211 ft 3 kts 259°
2026-04-17 09:38 51.15424 -0.17008 205 ft 5 kts 259°
2026-04-17 09:39 51.15413 -0.17095 211 ft 7 kts 256°
2026-04-17 09:39 51.15400 -0.17149 214 ft 9 kts 244°
2026-04-17 09:39 51.15376 -0.17237 212 ft 5 kts 224°
2026-04-17 09:39 51.15352 -0.17246 207 ft 6 kts 185°
2026-04-17 09:40 51.15305 -0.17232 207 ft 8 kts 163°
2026-04-17 09:40 51.15261 -0.17178 209 ft 9 kts 111°
2026-04-17 09:40 51.15268 -0.17080 209 ft 5 kts 77°
2026-04-17 09:40 51.15276 -0.17024 209 ft 2 kts 77°
2026-04-17 09:41 51.15281 -0.16990 205 ft 4 kts 77°
2026-04-17 09:41 51.15289 -0.16937 216 ft 6 kts 77°
2026-04-17 09:41 51.15294 -0.16869 205 ft 6 kts 98°
2026-04-17 09:41 51.15260 -0.16825 212 ft 7 kts 162°
2026-04-17 09:42 51.15208 -0.16806 212 ft 8 kts 168°
2026-04-17 09:42 51.15147 -0.16802 206 ft 10 kts 197°
2026-04-17 09:42 51.15110 -0.16894 215 ft 11 kts 255°
2026-04-17 09:42 51.15090 -0.17033 212 ft 21 kts 258°
2026-04-17 09:43 51.14996 -0.17702 216 ft 100 kts 257°
2026-04-17 09:43 51.14803 -0.19115 216 ft 161 kts 261°
2026-04-17 09:43 51.14597 -0.20951 807 ft 168 kts 256°
2026-04-17 09:43 51.14365 -0.22761 1674 ft 171 kts 255°
2026-04-17 09:44 51.14101 -0.24675 2120 ft 186 kts 255°
2026-04-17 09:44 51.13800 -0.26846 2456 ft 209 kts 257°
2026-04-17 09:44 51.13895 -0.29163 3178 ft 219 kts 286°
2026-04-17 09:44 51.14736 -0.31236 3840 ft 233 kts 313°
2026-04-17 09:45 51.16194 -0.32370 3977 ft 242 kts 350°
2026-04-17 09:45 51.17854 -0.31821 4155 ft 255 kts 31°
2026-04-17 09:45 51.19062 -0.29784 5007 ft 254 kts 64°
2026-04-17 09:45 51.19531 -0.27112 5894 ft 251 kts 82°
2026-04-17 09:46 51.19836 -0.24355 6739 ft 253 kts 80°
2026-04-17 09:46 51.20161 -0.21595 7500 ft 256 kts 80°
2026-04-17 09:46 51.20494 -0.18800 8282 ft 258 kts 80°
2026-04-17 09:46 51.20856 -0.15898 8740 ft 277 kts 79°
2026-04-17 09:47 51.21276 -0.12759 9109 ft 297 kts 79°
2026-04-17 09:47 51.21723 -0.09494 9764 ft 305 kts 79°
2026-04-17 09:47 51.22179 -0.06165 10410 ft 314 kts 79°
2026-04-17 09:47 51.22664 -0.02638 10614 ft 337 kts 76°
2026-04-17 09:48 51.23647 0.00851 10873 ft 355 kts 53°
2026-04-17 09:48 51.25441 0.03568 11425 ft 358 kts 30°
2026-04-17 09:48 51.27750 0.04993 12033 ft 357 kts
2026-04-17 09:48 51.30202 0.04907 12646 ft 354 kts 345°
2026-04-17 09:49 51.32632 0.04085 13302 ft 357 kts 343°
2026-04-17 09:49 51.35072 0.03228 13942 ft 361 kts 343°
2026-04-17 09:49 51.37546 0.02354 14535 ft 365 kts 343°
2026-04-17 09:49 51.40042 0.01476 15103 ft 369 kts 343°
2026-04-17 09:50 51.42551 0.00599 15705 ft 372 kts 343°
2026-04-17 09:50 51.45107 -0.00289 16311 ft 375 kts 343°
2026-04-17 09:50 51.47669 -0.01173 16916 ft 379 kts 343°
2026-04-17 09:50 51.50265 -0.02070 17494 ft 382 kts 343°
2026-04-17 09:51 51.52874 -0.02974 18074 ft 385 kts 343°
2026-04-17 09:51 51.55505 -0.03885 18596 ft 389 kts 343°
2026-04-17 09:51 51.58168 -0.04804 19077 ft 393 kts 343°
2026-04-17 09:51 51.60846 -0.05730 19564 ft 395 kts 343°
2026-04-17 09:52 51.63546 -0.06673 20062 ft 398 kts 343°
2026-04-17 09:52 51.66261 -0.07626 20486 ft 401 kts 342°
2026-04-17 09:52 51.69000 -0.08586 20965 ft 404 kts 342°
2026-04-17 09:52 51.71759 -0.09555 21436 ft 407 kts 342°
2026-04-17 09:53 51.74491 -0.10733 21895 ft 405 kts 334°
2026-04-17 09:53 51.77032 -0.12609 22366 ft 401 kts 324°
2026-04-17 09:53 51.79438 -0.14897 22819 ft 402 kts 323°
2026-04-17 09:53 51.81854 -0.17209 23276 ft 405 kts 323°
2026-04-17 09:54 51.84291 -0.19541 23779 ft 408 kts 323°
2026-04-17 09:54 51.86734 -0.21875 24164 ft 410 kts 323°
2026-04-17 09:54 51.89205 -0.24229 24556 ft 412 kts 323°
2026-04-17 09:54 51.91680 -0.26588 24933 ft 414 kts 323°
2026-04-17 09:55 51.94169 -0.28968 25336 ft 415 kts 323°
2026-04-17 09:55 51.96659 -0.31354 25729 ft 417 kts 322°
2026-04-17 09:55 51.99161 -0.33755 26114 ft 419 kts 322°
2026-04-17 09:55 52.01678 -0.36175 26499 ft 421 kts 322°
2026-04-17 09:56 52.04200 -0.38611 26862 ft 423 kts 322°
2026-04-17 09:56 52.06735 -0.41061 27238 ft 425 kts 322°
2026-04-17 09:56 52.09279 -0.43515 27605 ft 427 kts 322°
2026-04-17 09:56 52.11837 -0.45980 27970 ft 429 kts 322°
2026-04-17 09:57 52.14408 -0.48463 28338 ft 430 kts 322°
2026-04-17 09:57 52.16987 -0.50963 28697 ft 432 kts 322°
2026-04-17 09:57 52.19581 -0.53488 29053 ft 434 kts 322°
2026-04-17 09:57 52.22181 -0.56022 29405 ft 436 kts 322°
2026-04-17 09:58 52.24798 -0.58571 29744 ft 439 kts 322°
2026-04-17 09:58 52.27389 -0.61098 30069 ft 441 kts 322°
2026-04-17 09:58 52.30026 -0.63673 30379 ft 443 kts 322°
2026-04-17 09:58 52.32671 -0.66256 30667 ft 444 kts 322°
2026-04-17 09:59 52.35328 -0.68854 30945 ft 445 kts 322°
2026-04-17 09:59 52.37989 -0.71459 31226 ft 446 kts 322°
2026-04-17 09:59 52.40660 -0.74069 31498 ft 447 kts 322°
2026-04-17 09:59 52.43370 -0.76726 31775 ft 448 kts 321°
2026-04-17 10:00 52.45999 -0.79313 32137 ft 446 kts 321°
2026-04-17 10:00 52.48648 -0.81926 32506 ft 444 kts 321°
2026-04-17 10:00 52.51288 -0.84531 32865 ft 442 kts 321°
2026-04-17 10:00 52.53928 -0.87137 33223 ft 441 kts 321°
2026-04-17 10:01 52.56546 -0.89731 33579 ft 439 kts 320°
2026-04-17 10:01 52.59160 -0.92327 33948 ft 437 kts 320°
2026-04-17 10:01 52.61756 -0.94904 34260 ft 436 kts 320°
2026-04-17 10:01 52.64353 -0.97483 34533 ft 435 kts 320°
2026-04-17 10:02 52.66947 -1.00063 34787 ft 435 kts 320°
2026-04-17 10:02 52.69542 -1.02651 35027 ft 435 kts 321°
2026-04-17 10:02 52.72131 -1.05233 35289 ft 436 kts 321°
2026-04-17 10:02 52.74728 -1.07826 35521 ft 436 kts 321°
2026-04-17 10:03 52.77318 -1.10422 35761 ft 436 kts 321°
2026-04-17 10:03 52.79914 -1.13029 36016 ft 437 kts 321°
2026-04-17 10:03 52.82511 -1.15640 36272 ft 437 kts 321°
2026-04-17 10:03 52.85108 -1.18257 36499 ft 437 kts 321°
2026-04-17 10:04 52.87705 -1.20878 36726 ft 437 kts 321°
2026-04-17 10:04 52.90307 -1.23502 36928 ft 438 kts 321°
2026-04-17 10:04 52.92905 -1.26122 37138 ft 438 kts 321°
2026-04-17 10:04 52.95505 -1.28744 37345 ft 438 kts 321°
2026-04-17 10:05 52.98108 -1.31375 37538 ft 438 kts 321°
2026-04-17 10:05 53.00704 -1.34009 37722 ft 438 kts 321°
2026-04-17 10:05 53.03304 -1.36648 37912 ft 438 kts 321°
2026-04-17 10:05 53.05902 -1.39287 38063 ft 438 kts 321°
2026-04-17 10:06 53.11107 -1.44590 38082 ft 438 kts 321°
2026-04-17 10:06 53.16298 -1.49902 38074 ft 438 kts 321°
2026-04-17 10:07 53.21491 -1.55236 38068 ft 439 kts 321°
2026-04-17 10:07 53.26691 -1.60582 38058 ft 439 kts 321°
2026-04-17 10:08 53.31892 -1.65926 38073 ft 439 kts 321°
2026-04-17 10:08 53.37101 -1.71297 38068 ft 440 kts 321°
2026-04-17 10:09 53.42294 -1.76702 38078 ft 440 kts 321°
2026-04-17 10:09 53.47504 -1.82143 38087 ft 442 kts 321°
2026-04-17 10:10 53.52726 -1.87561 38083 ft 441 kts 321°
2026-04-17 10:11 53.60550 -1.95723 38062 ft 440 kts 321°
2026-04-17 10:11 53.65747 -2.01194 38057 ft 441 kts 321°
2026-04-17 10:12 53.70949 -2.06691 38051 ft 442 kts 321°
2026-04-17 10:12 53.76372 -2.11691 38045 ft 452 kts 331°
2026-04-17 10:13 53.82214 -2.15651 38046 ft 452 kts 331°
2026-04-17 10:13 53.88059 -2.19642 38042 ft 453 kts 331°
2026-04-17 10:14 53.93906 -2.23651 38040 ft 453 kts 331°
2026-04-17 10:14 53.99760 -2.27680 38043 ft 454 kts 331°
2026-04-17 10:15 54.05623 -2.31720 38032 ft 454 kts 331°
2026-04-17 10:15 54.11436 -2.35743 38029 ft 454 kts 331°
2026-04-17 10:16 54.17280 -2.39808 38026 ft 454 kts 331°
2026-04-17 10:16 54.23122 -2.43864 37494 ft 452 kts 330°
2026-04-17 10:16 54.26030 -2.45888 36880 ft 452 kts 330°
2026-04-17 10:17 54.28946 -2.47921 36267 ft 452 kts 329°
2026-04-17 10:17 54.31859 -2.49959 35692 ft 452 kts 329°
2026-04-17 10:17 54.34752 -2.51987 35237 ft 448 kts 329°
2026-04-17 10:17 54.37625 -2.54000 34771 ft 443 kts 328°
2026-04-17 10:18 54.40459 -2.55986 34222 ft 438 kts 328°
2026-04-17 10:18 54.43262 -2.57960 33652 ft 433 kts 328°
2026-04-17 10:18 54.46043 -2.59913 33018 ft 429 kts 328°
2026-04-17 10:18 54.48792 -2.61848 32370 ft 424 kts 328°
2026-04-17 10:19 54.51508 -2.63773 31727 ft 421 kts 328°
2026-04-17 10:19 54.53333 -2.65070 31301 ft 418 kts 328°
2026-04-17 10:19 54.55971 -2.66944 30714 ft 414 kts 328°
2026-04-17 10:19 54.58624 -2.68826 30118 ft 411 kts 328°
2026-04-17 10:20 54.61261 -2.70697 29427 ft 408 kts 329°
2026-04-17 10:20 54.63911 -2.72575 28742 ft 404 kts 329°
2026-04-17 10:20 54.66498 -2.74412 28103 ft 400 kts 329°
2026-04-17 10:20 54.69061 -2.76238 27553 ft 398 kts 329°
2026-04-17 10:21 54.71582 -2.78042 27066 ft 396 kts 329°
2026-04-17 10:21 54.74123 -2.79868 26582 ft 393 kts 329°
2026-04-17 10:21 54.76640 -2.81676 26112 ft 390 kts 329°
2026-04-17 10:21 54.79140 -2.83468 25918 ft 389 kts 329°
2026-04-17 10:22 54.81644 -2.85267 25941 ft 390 kts 329°
2026-04-17 10:22 54.84148 -2.87071 25941 ft 391 kts 329°
2026-04-17 10:22 54.86646 -2.88871 25933 ft 384 kts 329°
2026-04-17 10:22 54.89098 -2.90635 25908 ft 379 kts 329°
2026-04-17 10:23 54.91514 -2.92372 25416 ft 374 kts 329°
2026-04-17 10:23 54.93908 -2.94100 24869 ft 371 kts 329°
2026-04-17 10:23 54.96278 -2.95814 24266 ft 369 kts 330°
2026-04-17 10:23 54.98675 -2.97562 23619 ft 374 kts 330°
2026-04-17 10:24 55.01074 -2.99314 23074 ft 373 kts 330°
2026-04-17 10:24 55.03462 -3.01053 22565 ft 371 kts 330°
2026-04-17 10:24 55.05838 -3.02781 22087 ft 369 kts 330°
2026-04-17 10:24 55.08195 -3.04495 21593 ft 366 kts 330°
2026-04-17 10:25 55.10535 -3.06198 21113 ft 363 kts 330°
2026-04-17 10:25 55.12862 -3.07897 20641 ft 361 kts 330°
2026-04-17 10:25 55.15172 -3.09587 20152 ft 358 kts 330°
2026-04-17 10:25 55.17450 -3.11253 19928 ft 350 kts 331°
2026-04-17 10:26 55.19676 -3.12876 19689 ft 344 kts 331°
2026-04-17 10:26 55.21867 -3.14485 19248 ft 341 kts 330°
2026-04-17 10:26 55.24048 -3.16098 18807 ft 338 kts 330°
2026-04-17 10:26 55.26212 -3.17700 18288 ft 336 kts 331°
2026-04-17 10:27 55.28384 -3.19219 17671 ft 337 kts 337°
2026-04-17 10:27 55.30692 -3.20034 17072 ft 342 kts 350°
2026-04-17 10:27 55.33082 -3.19945 16509 ft 344 kts
2026-04-17 10:27 55.35464 -3.19551 15956 ft 343 kts
2026-04-17 10:28 55.37828 -3.19171 15413 ft 340 kts
2026-04-17 10:28 55.40178 -3.18800 14878 ft 338 kts
2026-04-17 10:28 55.42517 -3.18432 14347 ft 336 kts
2026-04-17 10:28 55.44836 -3.18072 13758 ft 333 kts
2026-04-17 10:29 55.47141 -3.17716 13122 ft 331 kts
2026-04-17 10:29 55.49429 -3.17361 12496 ft 329 kts
2026-04-17 10:29 55.51699 -3.17004 11893 ft 326 kts
2026-04-17 10:29 55.53946 -3.16652 11302 ft 323 kts
2026-04-17 10:30 55.56185 -3.16303 10728 ft 321 kts
2026-04-17 10:30 55.58405 -3.15956 10138 ft 319 kts
2026-04-17 10:30 55.60612 -3.15609 9595 ft 316 kts
2026-04-17 10:30 55.62792 -3.15264 9029 ft 313 kts
2026-04-17 10:31 55.64946 -3.14919 8592 ft 304 kts
2026-04-17 10:31 55.67039 -3.14578 8173 ft 297 kts
2026-04-17 10:31 55.69030 -3.14247 7925 ft 286 kts
2026-04-17 10:31 55.70998 -3.13916 7530 ft 282 kts
2026-04-17 10:32 55.72946 -3.13590 7176 ft 281 kts
2026-04-17 10:32 55.74854 -3.12826 6787 ft 284 kts 24°
2026-04-17 10:32 55.76389 -3.10672 6476 ft 282 kts 52°
2026-04-17 10:32 55.77515 -3.07828 6138 ft 281 kts 59°
2026-04-17 10:33 55.78557 -3.04906 5805 ft 279 kts 59°
2026-04-17 10:33 55.79582 -3.01995 5481 ft 277 kts 60°
2026-04-17 10:33 55.80602 -2.99102 5167 ft 274 kts 60°
2026-04-17 10:33 55.81594 -2.96281 5017 ft 266 kts 59°
2026-04-17 10:34 55.82567 -2.93492 5010 ft 265 kts 59°
2026-04-17 10:34 55.83536 -2.90697 5014 ft 265 kts 59°
2026-04-17 10:34 55.84501 -2.87900 5015 ft 265 kts 59°
2026-04-17 10:34 55.85524 -2.85181 4857 ft 264 kts 46°
2026-04-17 10:35 55.86941 -2.83168 4621 ft 257 kts 32°
2026-04-17 10:35 55.88403 -2.81490 4510 ft 244 kts 30°
2026-04-17 10:35 55.89809 -2.79912 4382 ft 233 kts 30°
2026-04-17 10:35 55.91139 -2.78411 4248 ft 221 kts 30°
2026-04-17 10:36 55.92428 -2.76943 4006 ft 219 kts 29°
2026-04-17 10:36 55.93727 -2.75573 3750 ft 214 kts 18°
2026-04-17 10:36 55.95145 -2.75377 3447 ft 200 kts 340°
2026-04-17 10:36 55.96455 -2.76112 3067 ft 197 kts 331°
2026-04-17 10:37 55.97727 -2.76987 3016 ft 197 kts 330°
2026-04-17 10:37 55.99006 -2.77878 3015 ft 197 kts 329°
2026-04-17 10:37 56.00290 -2.78762 3020 ft 197 kts 330°
2026-04-17 10:37 56.01565 -2.79658 3013 ft 196 kts 330°
2026-04-17 10:38 56.02831 -2.80557 3022 ft 196 kts 330°
2026-04-17 10:38 56.04100 -2.81456 3014 ft 196 kts 330°
2026-04-17 10:38 56.05367 -2.82356 3017 ft 196 kts 330°
2026-04-17 10:38 56.06618 -2.83248 3015 ft 196 kts 329°
2026-04-17 10:39 56.07649 -2.84631 3011 ft 179 kts 294°
2026-04-17 10:39 56.08021 -2.86681 3018 ft 169 kts 272°
2026-04-17 10:39 56.08181 -2.88759 3016 ft 168 kts 270°
2026-04-17 10:39 56.08316 -2.90829 3011 ft 167 kts 270°
2026-04-17 10:40 56.08445 -2.92896 3005 ft 167 kts 270°
2026-04-17 10:40 56.08573 -2.94947 3014 ft 168 kts 269°
2026-04-17 10:40 56.08461 -2.96985 3022 ft 159 kts 247°
2026-04-17 10:40 56.07945 -2.98700 3012 ft 158 kts 237°
2026-04-17 10:41 56.07396 -3.00347 3014 ft 152 kts 237°
2026-04-17 10:41 56.06863 -3.01943 3009 ft 146 kts 237°
2026-04-17 10:41 56.06351 -3.03477 3006 ft 142 kts 237°
2026-04-17 10:41 56.05848 -3.04983 3005 ft 140 kts 237°
2026-04-17 10:42 56.05350 -3.06471 3009 ft 139 kts 237°
2026-04-17 10:42 56.04855 -3.07952 3009 ft 138 kts 237°
2026-04-17 10:42 56.04360 -3.09433 3007 ft 139 kts 237°
2026-04-17 10:42 56.03861 -3.10922 3008 ft 140 kts 237°
2026-04-17 10:43 56.03363 -3.12410 3000 ft 140 kts 237°
2026-04-17 10:43 56.02860 -3.13910 2904 ft 140 kts 237°
2026-04-17 10:43 56.02360 -3.15399 2749 ft 139 kts 237°
2026-04-17 10:43 56.01859 -3.16894 2574 ft 140 kts 237°
2026-04-17 10:44 56.01358 -3.18384 2394 ft 139 kts 237°
2026-04-17 10:44 56.00859 -3.19871 2200 ft 139 kts 237°
2026-04-17 10:44 56.00363 -3.21346 2014 ft 138 kts 237°
2026-04-17 10:44 55.99868 -3.22814 1828 ft 137 kts 237°
2026-04-17 10:45 55.99375 -3.24287 1636 ft 137 kts 237°
2026-04-17 10:45 55.98899 -3.25722 1438 ft 128 kts 236°
2026-04-17 10:45 55.98461 -3.27016 1277 ft 120 kts 236°
2026-04-17 10:45 55.98026 -3.28306 1095 ft 120 kts 236°
2026-04-17 10:46 55.97597 -3.29566 903 ft 121 kts 236°
2026-04-17 10:46 55.97155 -3.30879 827 ft 124 kts 234°
2026-04-17 10:46 55.96708 -3.32202 633 ft 125 kts 233°
2026-04-17 10:46 55.96252 -3.33559 456 ft 128 kts 232°
2026-04-17 10:47 55.95789 -3.34930 262 ft 129 kts 232°
2026-04-17 10:47 55.95330 -3.36292 114 ft 124 kts 233°
2026-04-17 10:47 55.94944 -3.37403 112 ft 82 kts 239°
2026-04-17 10:47 55.94746 -3.37992 118 ft 16 kts 240°
2026-04-17 10:48 55.94694 -3.38050 120 ft 11 kts 171°
2026-04-17 10:48 55.94621 -3.37977 116 ft 10 kts 148°
2026-04-17 10:48 55.94596 -3.37871 113 ft 11 kts 71°
2026-04-17 10:48 55.94621 -3.37795 116 ft 5 kts 57°
2026-04-17 10:49 55.94641 -3.37741 118 ft 6 kts 57°
2026-04-17 10:49 55.94666 -3.37669 116 ft 8 kts 59°
2026-04-17 10:49 55.94704 -3.37555 113 ft 13 kts 59°
2026-04-17 10:49 55.94756 -3.37399 114 ft 16 kts 59°
2026-04-17 10:50 55.94822 -3.37204 109 ft 21 kts 58°
2026-04-17 10:50 55.94896 -3.36981 109 ft 18 kts 60°
2026-04-17 10:50 55.94923 -3.36861 110 ft 9 kts 100°
2026-04-17 10:50 55.94876 -3.36787 109 ft 11 kts 159°
2026-04-17 10:51 55.94819 -3.36779 108 ft 4 kts 179°
2026-04-17 10:51 55.94803 -3.36745 107 ft 5 kts 109°
2026-04-17 10:51 55.94802 -3.36673 107 ft 2 kts 89°
2026-04-17 10:51 55.94802 -3.36643 107 ft 3 kts 90°
2026-04-17 10:52 55.94802 -3.36630 108 ft 0 kts 90°